QPF
0.00 0.01 0.03 0.01 0.02 0.03 0.02 0.03 0.05 0.03 0.01 0.01 0.01 0.02 0.01 0.01 0.00 0.01 0.01 0.01 0.01 0.01 0.00 0.01 0.01 0.01 0.00 0.00 0.00 0.00 0.01 0.01 0.01 0.01 0.02 0.01 0.01 0.00 0.00 0.00 0.00 0.00 0.00 0.00
0.02 0.02 0.01 0.01 0.01 0.01 0.01 0.03 0.04 0.04 0.01 0.01 0.02 0.02 0.01 0.01 0.00 0.00 0.01 0.01 0.00 0.00 0.00 0.01 0.01 0.01 0.01 0.00 0.00 0.00 0.00 0.01 0.01 0.01 0.02 0.02 0.01 0.00 0.00 0.00 0.00 0.00 0.00 0.00
0.02 0.01 0.00 0.00 0.00 0.01 0.01 0.03 0.04 0.04 0.03 0.02 0.03 0.03 0.01 0.01 0.00 0.00 0.00 0.00 0.00 0.00 0.00 0.00 0.00 0.00 0.01 0.01 0.00 0.00 0.01 0.01 0.00 0.01 0.02 0.02 0.02 0.00 0.00 0.00 0.00 0.01 0.00 0.00
0.01 0.00 0.00 0.01 0.01 0.01 0.04 0.02 0.02 0.03 0.05 0.05 0.03 0.06 0.02 0.01 0.01 0.01 0.01 0.01 0.00 0.00 0.00 0.00 0.00 0.00 0.01 0.00 0.00 0.00 0.01 0.01 0.00 0.00 0.02 0.03 0.02 0.01 0.00 0.00 0.00 0.00 0.00 0.00
0.02 0.00 0.00 0.01 0.01 0.02 0.03 0.01 0.01 0.02 0.04 0.05 0.03 0.05 0.04 0.00 0.01 0.01 0.01 0.01 0.00 0.00 0.00 0.00 0.00 0.00 0.01 0.00 0.00 0.00 0.01 0.01 0.01 0.01 0.02 0.02 0.02 0.01 0.00 0.00 0.00 0.00 0.00 0.00
0.02 0.01 0.00 0.01 0.00 0.01 0.01 0.01 0.01 0.03 0.05 0.06 0.02 0.04 0.04 0.01 0.00 0.01 0.01 0.01 0.00 0.00 0.00 0.00 0.00 0.00 0.01 0.00 0.00 0.01 0.01 0.01 0.01 0.02 0.01 0.01 0.02 0.01 0.00 0.00 0.00 0.00 0.00 0.00
0.04 0.03 0.02 0.01 0.01 0.02 0.03 0.05 0.07 0.09 0.09 0.07 0.02 0.02 0.04 0.01 0.00 0.00 0.00 0.01 0.00 0.01 0.00 0.00 0.00 0.00 0.00 0.00 0.00 0.01 0.02 0.01 0.02 0.02 0.02 0.01 0.01 0.00 0.00 0.00 0.00 0.00 0.00 0.00
0.03 0.03 0.02 0.01 0.01 0.02 0.03 0.04 0.08 0.11 0.09 0.05 0.02 0.02 0.02 0.00 0.00 0.00 0.00 0.00 0.00 0.01 0.00 0.00 0.01 0.00 0.00 0.00 0.00 0.00 0.01 0.01 0.01 0.02 0.02 0.01 0.01 0.00 0.00 0.00 0.00 0.00 0.00 0.00
0.02 0.02 0.01 0.01 0.01 0.01 0.01 0.02 0.03 0.05 0.05 0.04 0.03 0.02 0.02 0.00 0.00 0.00 0.01 0.01 0.01 0.01 0.01 0.01 0.01 0.01 0.01 0.01 0.00 0.00 0.01 0.01 0.01 0.01 0.01 0.01 0.01 0.00 0.00 0.00 0.00 0.00 0.00 0.00
0.01 0.02 0.01 0.01 0.00 0.01 0.01 0.01 0.01 0.05 0.07 0.06 0.03 0.02 0.02 0.02 0.01 0.01 0.00 0.00 0.01 0.01 0.02 0.01 0.01 0.01 0.01 0.00 0.00 0.00 0.01 0.01 0.00 0.00 0.00 0.00 0.00 0.00 0.00 0.00 0.00 0.00 0.00 0.00
0.02 0.03 0.02 0.02 0.01 0.01 0.00 0.00 0.01 0.02 0.02 0.04 0.05 0.03 0.01 0.01 0.00 0.00 0.00 0.00 0.01 0.01 0.01 0.01 0.01 0.00 0.00 0.00 0.00 0.00 0.00 0.00 0.00 0.00 0.00 0.00 0.00 0.00 0.00 0.00 0.00 0.00 0.00 0.00
0.01 0.01 0.02 0.01 0.00 0.00 0.00 0.00 0.00 0.02 0.01 0.01 0.02 0.02 0.00 0.00 0.00 0.00 0.00 0.00 0.01 0.01 0.00 0.00 0.00 0.00 0.00 0.00 0.00 0.00 0.00 0.00 0.00 0.00 0.00 0.00 0.00 0.00 0.00 0.00 0.00 0.00 0.00 0.00
0.01 0.01 0.04 0.04 0.03 0.00 0.00 0.00 0.00 0.00 0.00 0.01 0.02 0.02 0.00 0.00 0.00 0.00 0.00 0.00 0.00 0.00 0.00 0.00 0.00 0.00 0.00 0.00 0.00 0.00 0.00 0.00 0.00 0.00 0.00 0.00 0.00 0.00 0.00 0.00 0.00 0.00 0.00 0.00
0.00 0.00 0.02 0.05 0.03 0.00 0.00 0.00 0.00 0.00 0.00 0.01 0.00 0.00 0.00 0.00 0.00 0.00 0.01 0.00 0.00 0.00 0.00 0.00 0.00 0.00 0.00 0.00 0.00 0.00 0.01 0.01 0.01 0.00 0.00 0.00 0.00 0.00 0.01 0.00 0.00 0.00 0.00 0.00
0.00 0.00 0.00 0.01 0.01 0.00 0.00 0.00 0.00 0.00 0.00 0.00 0.00 0.00 0.00 0.00 0.00 0.01 0.01 0.00 0.00 0.00 0.00 0.00 0.00 0.00 0.00 0.00 0.00 0.00 0.01 0.02 0.02 0.01 0.01 0.01 0.00 0.01 0.01 0.00 0.00 0.00 0.00 0.00
0.00 0.00 0.00 0.01 0.01 0.00 0.00 0.00 0.00 0.00 0.00 0.00 0.00 0.00 0.00 0.00 0.00 0.01 0.01 0.00 0.00 0.00 0.00 0.00 0.00 0.00 0.00 0.00 0.00 0.01 0.01 0.01 0.01 0.01 0.02 0.02 0.01 0.00 0.01 0.00 0.00 0.00 0.00 0.00
0.00 0.00 0.01 0.01 0.01 0.01 0.01 0.00 0.00 0.00 0.00 0.00 0.00 0.00 0.00 0.00 0.00 0.00 0.01 0.00 0.00 0.00 0.00 0.00 0.00 0.00 0.00 0.00 0.01 0.01 0.01 0.00 0.00 0.01 0.01 0.01 0.01 0.01 0.01 0.00 0.00 0.00 0.00 0.00
0.00 0.00 0.01 0.02 0.02 0.02 0.01 0.00 0.00 0.00 0.00 0.00 0.00 0.00 0.00 0.00 0.00 0.00 0.01 0.01 0.00 0.00 0.00 0.00 0.00 0.00 0.00 0.00 0.01 0.00 0.00 0.00 0.00 0.00 0.00 0.01 0.00 0.00 0.00 0.00 0.00 0.00 0.00 0.00
0.00 0.01 0.02 0.03 0.02 0.01 0.00 0.00 0.00 0.00 0.00 0.00 0.00 0.00 0.00 0.00 0.00 0.00 0.01 0.01 0.00 0.00 0.00 0.00 0.00 0.00 0.00 0.00 0.00 0.00 0.00 0.00 0.00 0.00 0.00 0.00 0.00 0.00 0.00 0.00 0.00 0.00 0.00 0.00
0.01 0.01 0.04 0.03 0.02 0.01 0.00 0.00 0.00 0.00 0.00 0.00 0.00 0.00 0.00 0.00 0.00 0.00 0.01 0.01 0.01 0.00 0.00 0.00 0.00 0.00 0.00 0.00 0.00 0.00 0.00 0.00 0.00 0.00 0.00 0.00 0.00 0.00 0.00 0.00 0.00 0.00 0.00 0.00
0.01 0.02 0.03 0.01 0.01 0.01 0.00 0.00 0.00 0.00 0.00 0.00 0.00 0.00 0.00 0.00 0.00 0.01 0.01 0.01 0.01 0.00 0.00 0.00 0.00 0.00 0.00 0.00 0.00 0.00 0.00 0.00 0.00 0.00 0.00 0.00 0.00 0.00 0.00 0.00 0.00 0.00 0.00 0.00
0.01 0.01 0.01 0.01 0.01 0.01 0.00 0.00 0.00 0.00 0.00 0.00 0.00 0.00 0.00 0.00 0.00 0.00 0.00 0.00 0.00 0.00 0.00 0.00 0.00 0.00 0.00 0.00 0.00 0.00 0.00 0.00 0.00 0.00 0.00 0.00 0.00 0.00 0.00 0.00 0.00 0.00 0.00 0.00
0.01 0.01 0.00 0.00 0.00 0.00 0.00 0.00 0.00 0.00 0.00 0.00 0.00 0.00 0.00 0.00 0.00 0.00 0.00 0.00 0.00 0.00 0.00 0.00 0.00 0.00 0.00 0.00 0.00 0.01 0.00 0.00 0.00 0.00 0.00 0.00 0.00 0.00 0.00 0.00 0.00 0.00 0.00 0.00
0.02 0.01 0.00 0.00 0.00 0.00 0.00 0.00 0.00 0.00 0.00 0.00 0.00 0.00 0.00 0.00 0.00 0.00 0.00 0.00 0.00 0.00 0.00 0.00 0.00 0.00 0.00 0.00 0.00 0.01 0.00 0.00 0.00 0.00 0.00 0.00 0.00 0.00 0.00 0.00 0.00 0.00 0.00 0.00
0.02 0.01 0.01 0.01 0.00 0.00 0.00 0.00 0.00 0.00 0.00 0.00 0.00 0.00 0.00 0.00 0.00 0.00 0.00 0.00 0.00 0.00 0.00 0.00 0.00 0.00 0.00 0.00 0.00 0.00 0.00 0.00 0.00 0.00 0.00 0.00 0.00 0.00 0.00 0.00 0.00 0.00 0.00 0.00
0.01 0.02 0.02 0.01 0.01 0.00 0.00 0.00 0.00 0.00 0.00 0.00 0.00 0.00 0.00 0.00 0.00 0.00 0.00 0.00 0.00 0.00 0.00 0.00 0.00 0.00 0.00 0.00 0.00 0.00 0.00 0.00 0.00 0.00 0.00 0.00 0.00 0.00 0.00 0.00 0.00 0.00 0.00 0.00
MSLP
1012.63 1013.48 1014.23 1014.84 1015.32 1015.71 1016.05 1016.36 1016.67 1016.98 1017.24 1017.44 1017.53 1017.48 1017.29 1016.99 1016.60 1016.21 1015.86 1015.62 1015.50 1015.53 1015.68 1015.92 1016.19 1016.45 1016.69 1016.87 1017.01 1017.11 1017.21 1017.32 1017.44 1017.58 1017.73 1017.86 1017.95 1018.00 1018.01 1017.97 1017.92 1017.87 1017.83 1017.81
1013.31 1014.08 1014.73 1015.26 1015.69 1016.06 1016.41 1016.76 1017.11 1017.44 1017.72 1017.89 1017.92 1017.78 1017.49 1017.08 1016.62 1016.19 1015.86 1015.68 1015.67 1015.82 1016.10 1016.44 1016.78 1017.07 1017.28 1017.41 1017.46 1017.49 1017.50 1017.55 1017.63 1017.75 1017.90 1018.03 1018.14 1018.20 1018.20 1018.17 1018.11 1018.06 1018.03 1018.03
1013.73 1014.40 1014.95 1015.42 1015.83 1016.21 1016.61 1017.03 1017.46 1017.85 1018.14 1018.29 1018.25 1018.01 1017.60 1017.08 1016.55 1016.08 1015.76 1015.64 1015.72 1016.00 1016.39 1016.83 1017.24 1017.56 1017.76 1017.84 1017.83 1017.77 1017.72 1017.71 1017.76 1017.86 1018.01 1018.15 1018.27 1018.34 1018.35 1018.32 1018.27 1018.23 1018.21 1018.23
1013.94 1014.49 1014.96 1015.38 1015.79 1016.23 1016.71 1017.23 1017.76 1018.22 1018.54 1018.66 1018.55 1018.20 1017.67 1017.02 1016.39 1015.86 1015.53 1015.45 1015.62 1015.99 1016.49 1017.02 1017.49 1017.85 1018.05 1018.10 1018.05 1017.94 1017.85 1017.80 1017.84 1017.94 1018.10 1018.26 1018.40 1018.48 1018.51 1018.49 1018.45 1018.41 1018.41 1018.44
1014.01 1014.43 1014.82 1015.22 1015.66 1016.17 1016.76 1017.41 1018.04 1018.57 1018.92 1019.02 1018.82 1018.36 1017.69 1016.91 1016.16 1015.56 1015.20 1015.13 1015.35 1015.79 1016.37 1016.98 1017.51 1017.90 1018.12 1018.18 1018.12 1018.00 1017.89 1017.85 1017.90 1018.02 1018.20 1018.40 1018.56 1018.67 1018.72 1018.72 1018.69 1018.66 1018.67 1018.72
1013.99 1014.31 1014.63 1015.01 1015.49 1016.09 1016.80 1017.56 1018.30 1018.89 1019.26 1019.32 1019.05 1018.47 1017.66 1016.75 1015.88 1015.20 1014.79 1014.71 1014.95 1015.44 1016.07 1016.74 1017.33 1017.77 1018.02 1018.10 1018.06 1017.97 1017.89 1017.88 1017.96 1018.13 1018.35 1018.59 1018.79 1018.93 1019.00 1019.02 1019.00 1018.99 1019.01 1019.07
1013.95 1014.17 1014.44 1014.81 1015.33 1016.01 1016.81 1017.67 1018.48 1019.13 1019.50 1019.52 1019.17 1018.48 1017.56 1016.53 1015.57 1014.81 1014.35 1014.25 1014.50 1015.01 1015.69 1016.39 1017.03 1017.51 1017.81 1017.93 1017.94 1017.89 1017.87 1017.91 1018.05 1018.28 1018.56 1018.84 1019.08 1019.26 1019.35 1019.39 1019.38 1019.38 1019.42 1019.50
1013.89 1014.03 1014.26 1014.63 1015.18 1015.90 1016.77 1017.68 1018.54 1019.20 1019.55 1019.53 1019.12 1018.35 1017.35 1016.25 1015.23 1014.42 1013.94 1013.83 1014.08 1014.61 1015.31 1016.05 1016.71 1017.23 1017.57 1017.75 1017.82 1017.83 1017.88 1017.99 1018.19 1018.48 1018.81 1019.14 1019.42 1019.63 1019.75 1019.80 1019.81 1019.82 1019.86 1019.96
1013.80 1013.89 1014.08 1014.45 1015.00 1015.75 1016.63 1017.55 1018.40 1019.04 1019.36 1019.30 1018.84 1018.04 1017.01 1015.89 1014.86 1014.06 1013.60 1013.51 1013.77 1014.32 1015.03 1015.78 1016.47 1017.02 1017.40 1017.63 1017.75 1017.83 1017.94 1018.12 1018.38 1018.72 1019.10 1019.46 1019.78 1020.01 1020.15 1020.21 1020.23 1020.25 1020.31 1020.42
1013.64 1013.71 1013.90 1014.25 1014.79 1015.51 1016.36 1017.24 1018.03 1018.61 1018.88 1018.78 1018.30 1017.50 1016.49 1015.43 1014.46 1013.73 1013.33 1013.29 1013.60 1014.16 1014.89 1015.66 1016.36 1016.92 1017.33 1017.60 1017.77 1017.90 1018.07 1018.30 1018.61 1018.98 1019.39 1019.78 1020.12 1020.36 1020.51 1020.59 1020.62 1020.66 1020.72 1020.84
1013.39 1013.48 1013.67 1014.01 1014.52 1015.19 1015.95 1016.74 1017.42 1017.91 1018.10 1017.96 1017.48 1016.72 1015.80 1014.85 1014.00 1013.40 1013.11 1013.16 1013.52 1014.13 1014.87 1015.64 1016.34 1016.92 1017.35 1017.64 1017.85 1018.03 1018.23 1018.50 1018.85 1019.25 1019.67 1020.07 1020.41 1020.67 1020.83 1020.92 1020.96 1021.01 1021.09 1021.22
1013.08 1013.21 1013.42 1013.75 1014.21 1014.79 1015.43 1016.08 1016.62 1016.98 1017.08 1016.89 1016.43 1015.74 1014.94 1014.13 1013.46 1013.01 1012.86 1013.02 1013.46 1014.10 1014.87 1015.64 1016.34 1016.92 1017.36 1017.68 1017.92 1018.14 1018.39 1018.69 1019.06 1019.48 1019.91 1020.32 1020.66 1020.92 1021.09 1021.19 1021.25 1021.31 1021.40 1021.55
1012.73 1012.93 1013.17 1013.48 1013.88 1014.35 1014.85 1015.32 1015.69 1015.90 1015.89 1015.66 1015.21 1014.60 1013.92 1013.28 1012.79 1012.52 1012.51 1012.79 1013.30 1013.98 1014.76 1015.52 1016.22 1016.80 1017.26 1017.61 1017.90 1018.17 1018.46 1018.80 1019.20 1019.64 1020.09 1020.50 1020.85 1021.12 1021.31 1021.43 1021.51 1021.58 1021.69 1021.84
1012.41 1012.67 1012.94 1013.24 1013.57 1013.91 1014.24 1014.53 1014.71 1014.76 1014.63 1014.34 1013.89 1013.36 1012.80 1012.32 1011.99 1011.87 1012.00 1012.37 1012.94 1013.64 1014.42 1015.18 1015.87 1016.46 1016.95 1017.35 1017.70 1018.03 1018.39 1018.80 1019.24 1019.72 1020.19 1020.62 1020.99 1021.28 1021.48 1021.63 1021.73 1021.83 1021.95 1022.10
1012.17 1012.48 1012.77 1013.04 1013.29 1013.50 1013.66 1013.76 1013.75 1013.63 1013.38 1013.02 1012.57 1012.09 1011.63 1011.28 1011.08 1011.08 1011.30 1011.72 1012.31 1013.02 1013.77 1014.52 1015.21 1015.82 1016.35 1016.82 1017.26 1017.69 1018.15 1018.63 1019.15 1019.68 1020.20 1020.67 1021.07 1021.38 1021.62 1021.80 1021.93 1022.06 1022.19 1022.35
1012.02 1012.36 1012.65 1012.88 1013.04 1013.12 1013.12 1013.04 1012.86 1012.58 1012.22 1011.79 1011.33 1010.88 1010.49 1010.22 1010.10 1010.17 1010.42 1010.86 1011.43 1012.10 1012.82 1013.54 1014.23 1014.88 1015.47 1016.03 1016.58 1017.13 1017.71 1018.31 1018.93 1019.54 1020.11 1020.63 1021.07 1021.43 1021.71 1021.92 1022.09 1022.24 1022.40 1022.56
1011.95 1012.30 1012.56 1012.73 1012.79 1012.75 1012.61 1012.37 1012.05 1011.64 1011.19 1010.71 1010.23 1009.79 1009.44 1009.21 1009.13 1009.21 1009.46 1009.85 1010.37 1010.98 1011.64 1012.33 1013.02 1013.69 1014.36 1015.03 1015.71 1016.40 1017.12 1017.85 1018.57 1019.28 1019.93 1020.51 1021.00 1021.40 1021.72 1021.98 1022.18 1022.36 1022.54 1022.71
1011.93 1012.23 1012.44 1012.53 1012.50 1012.36 1012.10 1011.75 1011.32 1010.83 1010.32 1009.81 1009.32 1008.90 1008.56 1008.34 1008.25 1008.31 1008.50 1008.82 1009.25 1009.78 1010.37 1011.01 1011.69 1012.41 1013.15 1013.93 1014.74 1015.57 1016.43 1017.29 1018.13 1018.92 1019.64 1020.28 1020.82 1021.27 1021.63 1021.92 1022.17 1022.38 1022.58 1022.77
1011.89 1012.11 1012.24 1012.25 1012.14 1011.91 1011.58 1011.16 1010.67 1010.15 1009.62 1009.11 1008.63 1008.22 1007.90 1007.67 1007.56 1007.56 1007.67 1007.90 1008.23 1008.66 1009.17 1009.76 1010.43 1011.18 1011.99 1012.86 1013.78 1014.74 1015.72 1016.69 1017.62 1018.49 1019.27 1019.96 1020.54 1021.02 1021.42 1021.75 1022.03 1022.28 1022.50 1022.71
1011.78 1011.91 1011.95 1011.88 1011.70 1011.42 1011.04 1010.60 1010.11 1009.59 1009.09 1008.60 1008.16 1007.78 1007.47 1007.23 1007.08 1007.02 1007.06 1007.19 1007.42 1007.75 1008.18 1008.73 1009.38 1010.14 1010.99 1011.93 1012.94 1013.99 1015.05 1016.10 1017.09 1018.01 1018.83 1019.54 1020.15 1020.66 1021.08 1021.44 1021.76 1022.04 1022.30 1022.54
1011.59 1011.63 1011.58 1011.44 1011.21 1010.90 1010.51 1010.08 1009.63 1009.16 1008.71 1008.28 1007.89 1007.54 1007.25 1007.01 1006.83 1006.72 1006.68 1006.73 1006.87 1007.12 1007.49 1007.99 1008.62 1009.37 1010.25 1011.23 1012.28 1013.37 1014.47 1015.55 1016.56 1017.49 1018.32 1019.04 1019.66 1020.18 1020.63 1021.02 1021.37 1021.69 1021.99 1022.27
1011.36 1011.30 1011.18 1010.99 1010.73 1010.41 1010.05 1009.66 1009.25 1008.85 1008.47 1008.10 1007.77 1007.47 1007.19 1006.96 1006.76 1006.61 1006.52 1006.50 1006.58 1006.77 1007.09 1007.55 1008.15 1008.89 1009.76 1010.74 1011.79 1012.88 1013.98 1015.04 1016.04 1016.95 1017.77 1018.48 1019.10 1019.63 1020.10 1020.52 1020.90 1021.26 1021.61 1021.93
1011.13 1011.01 1010.83 1010.61 1010.34 1010.03 1009.70 1009.36 1009.01 1008.67 1008.35 1008.05 1007.76 1007.49 1007.23 1007.00 1006.79 1006.61 1006.49 1006.44 1006.48 1006.63 1006.91 1007.34 1007.92 1008.64 1009.48 1010.43 1011.44 1012.49 1013.54 1014.56 1015.51 1016.39 1017.17 1017.87 1018.48 1019.03 1019.52 1019.97 1020.39 1020.80 1021.18 1021.54
1010.97 1010.81 1010.61 1010.37 1010.11 1009.83 1009.53 1009.22 1008.92 1008.63 1008.35 1008.07 1007.81 1007.54 1007.29 1007.05 1006.83 1006.64 1006.50 1006.44 1006.46 1006.60 1006.87 1007.28 1007.82 1008.51 1009.31 1010.20 1011.15 1012.14 1013.12 1014.07 1014.96 1015.79 1016.54 1017.22 1017.84 1018.39 1018.91 1019.40 1019.86 1020.31 1020.73 1021.13
1010.93 1010.77 1010.57 1010.34 1010.10 1009.83 1009.56 1009.28 1009.00 1008.72 1008.43 1008.15 1007.88 1007.60 1007.33 1007.06 1006.82 1006.63 1006.48 1006.41 1006.43 1006.57 1006.83 1007.23 1007.75 1008.40 1009.14 1009.97 1010.85 1011.76 1012.66 1013.54 1014.37 1015.15 1015.88 1016.55 1017.17 1017.75 1018.30 1018.82 1019.32 1019.80 1020.26 1020.69
1011.05 1010.91 1010.73 1010.53 1010.30 1010.06 1009.79 1009.51 1009.22 1008.92 1008.60 1008.28 1007.96 1007.63 1007.31 1007.01 1006.75 1006.53 1006.38 1006.31 1006.33 1006.47 1006.73 1007.12 1007.62 1008.22 1008.91 1009.67 1010.48 1011.31 1012.13 1012.94 1013.73 1014.47 1015.18 1015.85 1016.49 1017.10 1017.68 1018.23 1018.77 1019.27 1019.75 1020.19
Thickness
5737 5727 5719 5728 5734 5731 5727 5721 5718 5726 5740 5734 5725 5724 5731 5741 5741 5738 5739 5742 5742 5742 5746 5748 5749 5749 5749 5749 5747 5745 5744 5743 5742 5740 5738 5736 5735 5736 5736 5735 5734 5733 5732 5731
5725 5721 5733 5740 5740 5733 5727 5721 5719 5726 5738 5735 5726 5725 5735 5741 5742 5743 5743 5743 5742 5742 5743 5743 5745 5746 5745 5744 5743 5743 5742 5741 5739 5738 5737 5736 5734 5734 5733 5732 5731 5730 5728 5727
5718 5729 5741 5737 5733 5729 5728 5724 5723 5721 5731 5735 5727 5719 5728 5739 5745 5746 5747 5746 5745 5742 5740 5741 5741 5741 5741 5740 5741 5741 5740 5739 5738 5737 5735 5734 5732 5730 5729 5728 5728 5727 5726 5725
5726 5737 5737 5731 5730 5731 5720 5735 5733 5728 5719 5711 5721 5700 5721 5733 5735 5739 5742 5743 5742 5743 5742 5740 5739 5738 5739 5739 5740 5740 5739 5738 5736 5735 5732 5729 5725 5723 5725 5726 5726 5726 5724 5723
5723 5734 5730 5725 5731 5733 5727 5739 5735 5731 5722 5714 5721 5708 5718 5734 5728 5734 5740 5742 5743 5744 5743 5740 5740 5739 5739 5739 5738 5738 5737 5736 5735 5734 5732 5728 5725 5725 5726 5726 5725 5724 5723 5721
5731 5742 5739 5734 5739 5739 5738 5735 5732 5730 5721 5701 5721 5715 5715 5732 5735 5737 5742 5744 5744 5745 5744 5742 5741 5740 5738 5737 5736 5736 5734 5733 5733 5732 5731 5728 5725 5724 5722 5722 5721 5721 5720 5719
5721 5731 5739 5740 5729 5732 5732 5716 5698 5693 5693 5702 5733 5724 5724 5746 5753 5750 5746 5746 5746 5745 5743 5740 5738 5736 5735 5734 5734 5733 5732 5729 5730 5731 5730 5728 5726 5724 5722 5721 5720 5719 5716 5715
5711 5711 5731 5736 5730 5724 5726 5720 5696 5683 5689 5708 5730 5721 5735 5757 5760 5759 5755 5750 5747 5745 5743 5740 5738 5736 5734 5733 5733 5732 5730 5728 5728 5728 5727 5727 5726 5723 5722 5722 5720 5718 5716 5714
5718 5718 5739 5741 5741 5735 5723 5720 5727 5712 5711 5707 5717 5729 5738 5755 5753 5753 5751 5748 5744 5744 5743 5741 5739 5737 5735 5733 5732 5732 5729 5727 5727 5726 5725 5724 5724 5722 5721 5720 5719 5717 5716 5714
5731 5718 5730 5738 5739 5737 5736 5733 5723 5711 5697 5694 5711 5720 5723 5735 5741 5747 5747 5745 5744 5744 5743 5741 5740 5738 5736 5734 5733 5732 5730 5727 5726 5725 5724 5722 5721 5720 5719 5718 5716 5715 5714 5712
5736 5720 5722 5728 5723 5724 5728 5727 5727 5723 5720 5703 5694 5711 5748 5745 5748 5747 5748 5748 5746 5744 5743 5741 5740 5739 5737 5736 5733 5731 5729 5727 5725 5724 5723 5720 5719 5718 5717 5715 5714 5713 5712 5711
5737 5726 5717 5725 5742 5747 5740 5735 5731 5714 5716 5724 5711 5716 5759 5757 5756 5753 5751 5750 5749 5747 5745 5743 5740 5738 5736 5733 5731 5730 5729 5726 5724 5723 5722 5719 5717 5716 5714 5713 5712 5711 5710 5709
5735 5721 5706 5709 5721 5736 5734 5739 5739 5735 5728 5721 5709 5716 5756 5758 5756 5755 5752 5750 5749 5747 5745 5742 5739 5736 5734 5732 5730 5729 5728 5726 5724 5722 5719 5716 5714 5713 5711 5711 5710 5709 5707 5706
5737 5723 5711 5702 5714 5729 5728 5735 5739 5732 5719 5718 5722 5726 5742 5749 5749 5750 5750 5750 5748 5745 5743 5740 5736 5734 5733 5732 5730 5728 5727 5725 5723 5720 5716 5713 5711 5710 5709 5708 5707 5706 5704 5703
5736 5723 5726 5728 5735 5738 5735 5736 5738 5734 5732 5724 5729 5733 5742 5749 5751 5752 5751 5749 5746 5743 5741 5738 5735 5733 5731 5730 5728 5727 5725 5723 5721 5717 5713 5711 5710 5708 5706 5705 5703 5702 5700 5699
5736 5726 5727 5726 5735 5737 5733 5738 5739 5738 5739 5736 5736 5737 5754 5758 5758 5754 5752 5748 5743 5741 5740 5739 5736 5734 5731 5729 5726 5724 5722 5721 5719 5714 5710 5709 5707 5704 5702 5701 5699 5697 5695 5694
5731 5725 5718 5717 5732 5730 5720 5736 5739 5739 5743 5740 5732 5741 5754 5752 5752 5752 5752 5749 5745 5743 5741 5739 5737 5735 5733 5731 5727 5723 5721 5720 5716 5712 5708 5705 5703 5700 5698 5697 5694 5692 5690 5689
5730 5725 5721 5717 5717 5700 5728 5755 5752 5744 5745 5750 5749 5752 5754 5754 5756 5758 5757 5751 5747 5745 5742 5740 5739 5736 5735 5733 5729 5725 5722 5718 5714 5709 5705 5702 5699 5696 5694 5692 5689 5687 5686 5684
5737 5725 5715 5711 5704 5711 5733 5747 5749 5739 5737 5752 5751 5752 5754 5756 5751 5750 5756 5754 5751 5748 5745 5742 5741 5738 5735 5732 5728 5724 5719 5715 5711 5706 5703 5700 5696 5693 5690 5687 5684 5683 5681 5679
5731 5728 5714 5708 5698 5697 5724 5748 5757 5745 5727 5751 5753 5750 5750 5748 5730 5736 5752 5753 5750 5748 5746 5742 5739 5737 5732 5730 5727 5721 5716 5712 5707 5704 5701 5697 5693 5689 5686 5683 5681 5679 5677 5675
5709 5709 5704 5702 5699 5712 5737 5748 5747 5716 5722 5749 5752 5751 5748 5742 5742 5747 5751 5749 5746 5743 5742 5739 5736 5732 5729 5727 5723 5716 5712 5708 5706 5702 5698 5693 5689 5686 5682 5679 5677 5675 5672 5670
5707 5703 5702 5703 5695 5702 5739 5738 5729 5730 5746 5748 5749 5749 5746 5746 5747 5746 5745 5741 5739 5736 5735 5733 5729 5726 5725 5723 5718 5711 5707 5706 5702 5697 5692 5688 5685 5682 5679 5674 5671 5669 5666 5663
5712 5714 5713 5712 5710 5728 5738 5737 5740 5744 5741 5742 5743 5745 5744 5740 5739 5738 5736 5734 5731 5729 5728 5726 5722 5719 5718 5716 5712 5705 5702 5701 5696 5690 5685 5682 5679 5676 5673 5669 5665 5662 5659 5656
5712 5722 5715 5711 5717 5726 5731 5734 5736 5738 5736 5739 5740 5740 5739 5734 5733 5731 5729 5727 5724 5723 5721 5719 5716 5711 5709 5708 5706 5702 5699 5695 5690 5684 5680 5676 5672 5669 5666 5663 5659 5655 5652 5649
5700 5705 5703 5702 5711 5716 5720 5724 5727 5730 5732 5733 5733 5734 5732 5730 5727 5725 5723 5721 5719 5716 5714 5712 5709 5705 5702 5701 5698 5696 5693 5689 5683 5678 5674 5670 5666 5663 5659 5655 5652 5649 5646 5643
5698 5695 5690 5691 5704 5705 5708 5718 5722 5721 5721 5723 5723 5723 5725 5725 5721 5720 5717 5716 5714 5710 5708 5705 5703 5699 5697 5694 5691 5689 5687 5683 5677 5672 5668 5664 5660 5656 5652 5648 5643 5641 5639 5637